DW7935 Lakenheath UK current weather conditions

sailwx.info

Wind from 235 at 2 knots gusting 5

Air temperature 20.0° C
Dewpoint 13.7° C

Last reported at 2019-Jun-18 12:05 UTC.
Time now 2019-Jun-18 12:40 UTC

Location: N 52°27' E 000°36'.
View on Google Maps.

See reports from other nearby stations

  
Tides and Currents Weather Stations Pressure Air Temp Water Temp Dewpoint Dewpoint Depression Visibility Wind Speed Wind Dir Waves Ship Positions
date/time (UTC)wind fromknots sea level pressurealtimeterstation pressurevisibilityair tempwater tempwave heightnotes
2019-Jun-18 12:05 235 2 gusting 5 20.0
2019-Jun-18 12:00 255 0 gusting 6 20.0
2019-Jun-18 11:55 234 1 gusting 5 20.0
2019-Jun-18 11:50 226 1 gusting 3 20.0
2019-Jun-18 11:45 117 0 gusting 5 20.0
2019-Jun-18 11:40 188 0 gusting 7 20.0
2019-Jun-18 11:35 183 2 gusting 7 20.0
2019-Jun-18 11:30 293 0 gusting 7 20.0
2019-Jun-18 11:25 283 0 gusting 7 20.0
2019-Jun-18 11:20 224 1 gusting 3 20.0
2019-Jun-18 11:15 190 0 gusting 7 20.0
2019-Jun-18 11:10 223 2 gusting 3 20.0
2019-Jun-18 11:05 250 0 gusting 2 20.0
2019-Jun-18 11:00 223 0 gusting 3 19.4
2019-Jun-18 10:55 272 19.4
2019-Jun-18 10:50 207 2 gusting 5 19.4
2019-Jun-18 10:45 286 20.0
2019-Jun-18 10:40 145 1 gusting 6 19.4
2019-Jun-18 10:35 172 0 gusting 7 19.4
2019-Jun-18 10:30 306 0 gusting 7 19.4
2019-Jun-18 10:25 080 1 gusting 5 20.0
2019-Jun-18 10:20 200 0 gusting 6 20.0
2019-Jun-18 10:15 240 0 gusting 5 20.0
2019-Jun-18 10:10 226 1 gusting 5 19.4
2019-Jun-18 10:05 241 1 gusting 5 20.0
2019-Jun-18 10:00 281 0 gusting 1 20.0
2019-Jun-18 09:55 240 19.4
2019-Jun-18 09:50 087 19.4
2019-Jun-18 09:45 238 19.4
2019-Jun-18 09:39 142 18.9
2019-Jun-18 09:35 233 1 gusting 5 18.9
2019-Jun-18 09:29 107 18.9
2019-Jun-18 09:25 214 18.9
2019-Jun-18 09:19 269 0 gusting 5 18.9
2019-Jun-18 09:15 247 19.4
2019-Jun-18 09:09 217 19.4
2019-Jun-18 09:05 147 19.4
2019-Jun-18 08:59 245 19.4
2019-Jun-18 08:55 237 18.9
2019-Jun-18 08:49 272 18.3
2019-Jun-18 08:44 272 0 gusting 1 18.3
2019-Jun-18 08:39 190 18.3
2019-Jun-18 08:34 299 17.8
2019-Jun-18 08:29 341 0 gusting 2 17.8
2019-Jun-18 08:25 283 17.8
2019-Jun-18 08:19 303 0 gusting 2 17.8
2019-Jun-18 08:14 292 0 gusting 2 17.8
2019-Jun-18 08:09 274 17.8
2019-Jun-18 08:05 250 0 gusting 3 17.8
2019-Jun-18 08:00 231 17.8
2019-Jun-18 07:54 237 0 gusting 3 17.2
2019-Jun-18 07:49 226 0 gusting 3 17.2
2019-Jun-18 07:44 244 17.2
2019-Jun-18 07:39 237 16.7
2019-Jun-18 07:34 203 16.7
2019-Jun-18 07:29 217 16.7
2019-Jun-18 07:25 200 16.1
2019-Jun-18 07:19 188 15.6
2019-Jun-18 07:14 237 15.6
2019-Jun-18 07:09 227 15.6
2019-Jun-18 07:04 238 15.6
2019-Jun-18 06:59 224 15.6
2019-Jun-18 06:54 224 16.1
2019-Jun-18 06:49 209 16.1
2019-Jun-18 06:44 217 15.6
2019-Jun-18 06:39 204 15.6
2019-Jun-18 06:34 189 15.0
2019-Jun-18 06:29 228 0 gusting 2 15.0
2019-Jun-18 06:24 157 0 gusting 2 14.4
2019-Jun-18 06:19 200 14.4
2019-Jun-18 06:14 123 0 gusting 2 14.4
2019-Jun-18 06:09 227 13.9
2019-Jun-18 06:04 189 13.3
2019-Jun-18 05:59 204 13.3
2019-Jun-18 05:54 245 13.3
2019-Jun-18 05:49 212 13.3
2019-Jun-18 05:44 214 0 gusting 2 13.3
2019-Jun-18 05:39 220 13.3
2019-Jun-18 05:34 230 13.3
2019-Jun-18 05:29 228 13.3
2019-Jun-18 05:24 269 13.3
2019-Jun-18 05:19 127 12.8
2019-Jun-18 05:14 127 12.2
2019-Jun-18 05:09 130 12.2
2019-Jun-18 05:04 141 11.7
2019-Jun-18 04:59 141 11.1
2019-Jun-18 04:54 141 10.6
2019-Jun-18 04:49 138 10.6
2019-Jun-18 04:44 144 10.6
2019-Jun-18 04:39 144 10.6
2019-Jun-18 04:34 144 10.6
2019-Jun-18 04:29 144 10.6
2019-Jun-18 04:24 144 10.6
2019-Jun-18 04:19 144 10.6
2019-Jun-18 04:14 144 10.6
2019-Jun-18 04:09 144 10.6
2019-Jun-18 04:04 144 10.6
2019-Jun-18 03:59 144 10.6
2019-Jun-18 03:54 144 11.1
2019-Jun-18 03:49 144 11.1
2019-Jun-18 03:44 144 11.1
2019-Jun-18 03:39 144 11.1
2019-Jun-18 03:34 144 11.1
2019-Jun-18 03:29 235 11.1
2019-Jun-18 03:24 226 11.1
2019-Jun-18 03:19 154 11.1
2019-Jun-18 03:14 226 11.1
2019-Jun-18 03:09 209 11.1
2019-Jun-18 03:04 207 11.1
2019-Jun-18 02:59 113 11.1
2019-Jun-18 02:54 224 11.1
2019-Jun-18 02:49 158 11.1
2019-Jun-18 02:44 197 10.6
2019-Jun-18 02:39 151 10.6
2019-Jun-18 02:34 240 10.6
2019-Jun-18 02:29 233 10.6
2019-Jun-18 02:24 234 10.6
2019-Jun-18 02:19 234 10.6
2019-Jun-18 02:14 234 10.6
2019-Jun-18 02:09 233 10.6
2019-Jun-18 02:04 233 11.1
2019-Jun-18 01:59 233 11.1
2019-Jun-18 01:54 233 11.1
2019-Jun-18 01:49 231 11.7
2019-Jun-18 01:44 231 11.7
2019-Jun-18 01:39 248 11.7
2019-Jun-18 01:34 224 11.7
2019-Jun-18 01:29 213 11.7
2019-Jun-18 01:24 244 11.1
2019-Jun-18 01:19 240 11.1
2019-Jun-18 01:14 227 11.1
2019-Jun-18 01:09 219 11.1
2019-Jun-18 01:04 204 11.1
2019-Jun-18 00:59 204 11.7
2019-Jun-18 00:54 204 11.7
2019-Jun-18 00:49 254 11.1
2019-Jun-18 00:44 254 11.1
2019-Jun-18 00:39 259 11.7
2019-Jun-18 00:34 259 11.7
2019-Jun-18 00:29 259 11.7
2019-Jun-18 00:24 259 11.7
2019-Jun-18 00:19 259 11.1
2019-Jun-18 00:14 266 11.1
2019-Jun-18 00:09 216 11.1
2019-Jun-18 00:04 216 11.1
2019-Jun-17 23:59 216 11.1
2019-Jun-17 23:54 216 11.7
2019-Jun-17 23:49 216 11.7
2019-Jun-17 23:44 216 11.7
2019-Jun-17 23:39 237 11.7
2019-Jun-17 23:34 237 12.2
2019-Jun-17 23:29 237 12.2
2019-Jun-17 23:24 237 12.2
2019-Jun-17 23:19 237 12.2
2019-Jun-17 23:14 237 12.8
2019-Jun-17 23:09 235 12.8
2019-Jun-17 23:04 235 12.8
2019-Jun-17 22:59 235 13.3
2019-Jun-17 22:54 235 13.3
2019-Jun-17 22:49 235 13.9
2019-Jun-17 22:44 235 13.9
2019-Jun-17 22:39 235 13.9
2019-Jun-17 22:34 235 14.4
2019-Jun-17 22:29 241 14.4
2019-Jun-17 22:24 241 14.4
2019-Jun-17 22:19 243 14.4
2019-Jun-17 22:14 223 14.4
2019-Jun-17 22:09 234 14.4
2019-Jun-17 22:04 233 14.4
2019-Jun-17 21:59 234 14.4
2019-Jun-17 21:54 234 15.0
2019-Jun-17 21:49 234 15.0
2019-Jun-17 21:44 234 15.0
2019-Jun-17 21:39 234 15.0
2019-Jun-17 21:34 209 15.6
2019-Jun-17 21:29 209 15.6
2019-Jun-17 21:24 209 15.6
2019-Jun-17 21:19 212 15.6
2019-Jun-17 21:14 221 15.0
2019-Jun-17 21:09 221 15.0
2019-Jun-17 21:04 216 15.0
2019-Jun-17 20:59 214 15.6
2019-Jun-17 20:54 214 15.6
2019-Jun-17 20:49 214 15.6
2019-Jun-17 20:44 214 15.6
2019-Jun-17 20:39 214 15.6
2019-Jun-17 20:34 214 15.6
2019-Jun-17 20:29 214 16.1
2019-Jun-17 20:24 214 16.1
2019-Jun-17 20:19 214 16.1
2019-Jun-17 20:14 214 16.7
2019-Jun-17 20:09 214 16.7
2019-Jun-17 20:04 214 17.2
2019-Jun-17 19:59 214 17.8
2019-Jun-17 19:54 214 17.8
2019-Jun-17 19:49 214 18.3
2019-Jun-17 19:44 214 18.3
2019-Jun-17 19:37 245 18.3
2019-Jun-17 19:31 219 18.9
2019-Jun-17 19:29 283 18.9
2019-Jun-17 19:22 069 19.4
2019-Jun-17 19:17 276 19.4
2019-Jun-17 19:13 282 1 gusting 3 19.4
2019-Jun-17 19:08 241 19.4
2019-Jun-17 19:03 217 19.4
2019-Jun-17 18:57 195 19.4
2019-Jun-17 18:52 293 0 gusting 3 20.0
2019-Jun-17 18:47 299 0 gusting 5 20.0
2019-Jun-17 18:43 269 1 gusting 5 20.6
2019-Jun-17 18:37 224 1 gusting 5 20.6
2019-Jun-17 18:31 319 20.6
2019-Jun-17 18:27 255 21.1
2019-Jun-17 18:23 109 4 gusting 5 21.1
2019-Jun-16 23:04 134 13.3
2019-Jun-16 22:59 134 13.3
2019-Jun-16 22:54 134 13.3
2019-Jun-16 22:49 131 13.3
2019-Jun-16 22:44 228 13.9
2019-Jun-16 22:39 128 0 gusting 3 13.9
2019-Jun-16 22:34 261 13.9
2019-Jun-16 22:29 147 0 gusting 3 13.9
2019-Jun-16 22:24 220 13.9
2019-Jun-16 22:19 045 0 gusting 7 14.4
2019-Jun-16 22:14 264 0 gusting 7 14.4
2019-Jun-16 22:09 110 0 gusting 2 14.4
2019-Jun-16 22:04 247 14.4
2019-Jun-16 21:59 113 14.4
2019-Jun-16 21:54 140 0 gusting 3 14.4
2019-Jun-16 21:49 107 0 gusting 3 14.4
2019-Jun-16 21:44 172 15.0
2019-Jun-16 21:39 151 15.0
2019-Jun-16 21:34 102 15.0
2019-Jun-16 21:29 061 0 gusting 3 15.0
2019-Jun-16 21:24 111 0 gusting 3 15.6
2019-Jun-16 21:19 117 1 gusting 3 15.6
2019-Jun-16 21:14 149 15.6
2019-Jun-16 21:09 162 15.6
2019-Jun-16 21:04 121 1 gusting 8 15.6
2019-Jun-16 20:59 254 1 gusting 5 16.1
2019-Jun-16 20:54 110 16.1
2019-Jun-16 20:49 204 0 gusting 6 16.1
2019-Jun-16 20:44 213 0 gusting 6 16.1
2019-Jun-16 20:39 175 0 gusting 3 16.1
2019-Jun-16 20:34 212 0 gusting 5 16.7
2019-Jun-16 20:29 079 0 gusting 5 16.7
2019-Jun-16 20:24 227 0 gusting 5 16.7
2019-Jun-16 20:19 158 1 gusting 5 16.7
2019-Jun-16 20:14 124 0 gusting 5 17.2
2019-Jun-16 20:09 257 1 gusting 11 17.2
2019-Jun-16 20:04 227 3 gusting 11 17.2
2019-Jun-16 19:59 166 3 gusting 11 17.2
2019-Jun-16 19:54 166 3 gusting 11 17.8
2019-Jun-16 19:49 264 2 gusting 7 17.8
2019-Jun-16 19:44 216 2 gusting 13 17.8
2019-Jun-16 19:39 221 6 gusting 13 18.3
2019-Jun-16 19:34 212 4 gusting 11 18.3
2019-Jun-16 19:29 237 4 gusting 11 18.3
2019-Jun-16 19:24 199 3 gusting 10 18.3
2019-Jun-16 19:19 021 3 gusting 11 18.3
2019-Jun-16 19:14 243 4 gusting 13 18.3
2019-Jun-16 19:09 252 6 gusting 16 18.3
2019-Jun-16 19:04 227 6 gusting 16 18.9
2019-Jun-16 18:59 165 6 gusting 14 18.9
2019-Jun-16 18:54 183 6 gusting 14 19.4
2019-Jun-16 18:49 118 4 gusting 14 18.9
2019-Jun-16 18:44 217 6 gusting 13 18.9
2019-Jun-16 18:39 210 4 gusting 12 18.9
2019-Jun-16 18:34 266 3 gusting 12 18.9
2019-Jun-16 18:29 190 5 gusting 12 18.9
2019-Jun-16 18:24 037 3 gusting 13 18.9
2019-Jun-16 18:19 206 7 gusting 17 18.9
2019-Jun-16 18:14 330 6 gusting 17 19.4
2019-Jun-16 18:09 265 6 gusting 16 19.4
2019-Jun-16 18:04 214 6 gusting 21 19.4
2019-Jun-16 17:59 250 5 gusting 21 19.4
2019-Jun-16 17:54 206 9 gusting 14 20.0
2019-Jun-16 17:49 217 5 gusting 11 20.0
2019-Jun-16 17:44 148 4 gusting 11 20.0
2019-Jun-16 17:39 207 6 gusting 11 19.4
2019-Jun-16 17:34 157 4 gusting 16 19.4
2019-Jun-16 17:29 183 8 gusting 16 19.4
2019-Jun-16 17:24 197 6 gusting 19 19.4
2019-Jun-16 17:19 283 7 gusting 19 20.0
2019-Jun-16 17:14 071 6 gusting 19 20.0
2019-Jun-16 17:09 195 9 gusting 19 20.0
2019-Jun-16 17:04 233 6 gusting 17 20.6
2019-Jun-16 16:59 281 4 gusting 19 20.6
2019-Jun-16 16:54 238 7 gusting 19 20.6
2019-Jun-16 16:49 265 5 gusting 12 20.6
2019-Jun-16 16:44 338 5 gusting 19 20.6
2019-Jun-16 16:39 120 7 gusting 19 20.6
2019-Jun-16 16:34 275 5 gusting 14 20.6
2019-Jun-16 16:29 254 6 gusting 14 20.6
2019-Jun-16 16:24 251 6 gusting 14 20.6
2019-Jun-16 16:19 309 4 gusting 13 20.6
2019-Jun-16 16:14 262 6 gusting 16 20.6
2019-Jun-16 16:09 234 6 gusting 16 21.1
2019-Jun-16 16:04 210 7 gusting 17 21.1
2019-Jun-16 15:59 175 7 gusting 17 21.1
2019-Jun-16 15:54 264 6 gusting 14 20.6
2019-Jun-16 15:49 231 6 gusting 19 20.6
2019-Jun-16 15:44 302 5 gusting 19 21.1
2019-Jun-16 15:39 275 7 gusting 17 21.1
2019-Jun-16 15:34 252 7 gusting 17 21.7
2019-Jun-16 15:29 196 6 gusting 17 21.7
2019-Jun-16 15:24 248 6 gusting 13 21.7
2019-Jun-16 15:19 145 5 gusting 14 21.1
2019-Jun-16 15:14 212 6 gusting 14 20.6
2019-Jun-16 15:09 203 5 gusting 17 20.6
2019-Jun-16 15:04 238 5 gusting 17 20.0
2019-Jun-16 14:59 285 6 gusting 19 19.4
2019-Jun-16 14:54 217 6 gusting 19 20.0
2019-Jun-16 14:49 272 6 gusting 14 20.0
2019-Jun-16 14:44 199 2 gusting 12 19.4
2019-Jun-16 14:39 089 2 gusting 13 18.9
2019-Jun-16 14:34 102 5 gusting 13 18.3
2019-Jun-16 14:29 230 1 gusting 5 18.3
2019-Jun-16 14:24 131 1 gusting 8 17.8
2019-Jun-16 14:19 261 1 gusting 19 18.3
2019-Jun-16 14:14 248 6 gusting 19 18.9
2019-Jun-16 14:09 193 6 gusting 16 20.0
2019-Jun-16 14:04 141 6 gusting 19 20.0
2019-Jun-16 13:59 228 13 gusting 19 20.6
2019-Jun-16 13:54 213 2 gusting 12 20.6
2019-Jun-16 13:49 223 5 gusting 19 20.0
2019-Jun-16 13:44 244 8 gusting 19 20.0
2019-Jun-16 13:39 176 4 gusting 17 20.0
2019-Jun-16 13:34 117 7 gusting 17 20.0
2019-Jun-16 13:29 243 4 gusting 14 20.0
2019-Jun-16 13:24 238 6 gusting 16 20.0
2019-Jun-16 13:19 238 5 gusting 16 19.4
2019-Jun-16 13:14 133 4 gusting 14 19.4
2019-Jun-16 13:09 223 4 gusting 14 19.4
2019-Jun-16 13:04 235 3 gusting 16 20.0
2019-Jun-16 12:59 214 5 gusting 16 20.0
2019-Jun-16 12:54 078 3 gusting 12 20.0
2019-Jun-16 12:49 237 3 gusting 17 20.0
2019-Jun-16 12:44 179 7 gusting 19 20.0
2019-Jun-16 12:39 217 6 gusting 19 19.4
2019-Jun-16 12:34 212 2 gusting 14 19.4
2019-Jun-16 12:29 059 6 gusting 16 19.4
2019-Jun-16 12:24 106 7 gusting 16 19.4
2019-Jun-16 12:19 061 3 gusting 13 18.9
2019-Jun-16 12:14 234 4 gusting 14 18.3
2019-Jun-16 12:09 109 4 gusting 14 18.3
2019-Jun-16 12:04 295 1 gusting 12 18.3